This demonstration page uses our WeatherBlox Daily Observations layout. Learn more.

Left ArrowRight Arrow

39.08367, -84.50855

Hourly Observations for October 3, 2022

Temp ( °F °C ) Dew Point ( °F °C ) Humidity (%) Winds ( mph kmh ) Pressure ( in mb ) Visibility ( mi km ) Precip ( " mm )
12:53 am 00:53 Clear 52 11.1 44 6.7 74 74 NE 9 15 30.27 1025 10 16 0.00 0.00
1:53 am 01:53 Clear 50 10 43 6.1 77 77 NNE 6 9 30.27 1025 10 16 0.00 0.00
2:53 am 02:53 Clear 48 8.9 43 6.1 83 83 NNE 3 6 30.27 1025 10 16 0.00 0.00
3:53 am 03:53 Clear 49 9.4 43 6.1 80 80 Calm 30.27 1025 10 16 0.00 0.00
4:53 am 04:53 Clear 47 8.3 44 6.7 90 90 Calm 30.27 1025 10 16 0.00 0.00
5:53 am 05:53 Clear 44 6.7 43 6.1 96 96 Calm 30.29 1026 10 16 0.00 0.00
6:53 am 06:53 Clear 44 6.7 44 6.7 100 100 Calm 30.30 1026 10 16 0.00 0.00
7:15 am 07:15 Clear with Mist and Fog 42 5.6 41 5 96 96 Calm 30.33 1027 2 3 0.00 0.00
7:22 am 07:22 Clear 42 5.6 41 5 96 96 Calm 30.33 1027 10 16 0.00 0.00
7:53 am 07:53 Sunny 42 5.6 42 5.6 100 100 Calm 30.31 1027 10 16 0.00 0.00
8:53 am 08:53 Sunny 49 9.4 45 7.2 86 86 NE 3 6 30.33 1027 10 16 0.00 0.00
9:53 am 09:53 Sunny 52 11.1 45 7.2 77 77 ENE 6 9 30.33 1027 10 16 0.00 0.00
10:53 am 10:53 Sunny 56 13.3 47 8.3 72 72 Calm 30.32 1027 10 16 0.00 0.00
11:53 am 11:53 Sunny 61 16.1 48 8.9 62 62 N 6 9 30.32 1027 10 16 0.00 0.00
12:53 pm 12:53 Mostly Sunny 64 17.8 48 8.9 56 56 NNE 7 11 30.31 1027 10 16 0.00 0.00
1:37 pm 13:37 Sunny 65 18.3 46 7.8 50 50 N 12 19 30.29 1026 10 16 0.00 0.00
1:53 pm 13:53 Sunny 66 18.9 47 8.3 50 50 N 12 19 30.29 1026 10 16 0.00 0.00
2:53 pm 14:53 Sunny 68 20 45 7.2 43 43 NNE 8 13 30.27 1025 10 16 0.00 0.00
3:53 pm 15:53 Sunny 69 20.6 44 6.7 40 40 NE 10 17 30.25 1024 10 16 0.00 0.00
4:53 pm 16:53 Sunny 70 21.1 40 4.4 33 33 NE 9 15 30.24 1024 10 16 0.00 0.00
5:53 pm 17:53 Sunny 68 20 41 5 37 37 NE 7 11 30.24 1024 10 16 0.00 0.00
6:53 pm 18:53 Sunny 64 17.8 39 3.9 40 40 NNE 6 9 30.24 1024 10 16 0.00 0.00
7:53 pm 19:53 Clear 54 12.2 45 7.2 71 71 Calm 30.25 1024 10 16 0.00 0.00
8:53 pm 20:53 Clear 50 10 44 6.7 80 80 ENE 3 6 30.25 1024 10 16 0.00 0.00
9:53 pm 21:53 Clear 48 8.9 45 7.2 89 89 NE 3 6 30.25 1024 10 16 0.00 0.00
10:53 pm 22:53 Clear 44 6.7 43 6.1 96 96 Calm 30.25 1025 10 16 0.00 0.00
11:53 pm 23:53 Clear 44 6.7 43 6.1 96 96 Calm 30.25 1024 10 16 0.00 0.00

Powered by AerisWeather